Location: ??????
(38.3184°N, 23.6932°E)
Time: 02:48:59
(UTC+00:00)

Timation 2 Rocket - Pass Details

Date: 16 October 2021
Orbit: 904 x 1077 km, 70.0° (Epoch: 04 December)

Event Time Altitude Azimuth Distance (km) Brightness Sun altitude
Rises 16:03:53 0° 340° (NNW) 3,880 7.3 -4.3°
Reaches altitude 10° 16:06:39 10° 346° (NNW) 2,918 6.6 -4.9°
Maximum altitude 16:13:20 51° 61° (ENE) 1,319 4.4 -6.2°
Drops below altitude 10° 16:19:48 10° 136° (SE) 2,836 6.1 -7.4°
Sets 16:22:27 0° 141° (SE) 3,762 6.7 -7.9°
